Weather History for Sarasota, FL

Change the Weather History Date:

Tuesday, December 18, 2012

  Actual Average Record
Temperature  
Mean Temperature 67 °F 63 °F  
Max Temperature 79 °F 73 °F 90 °F (1967)
Min Temperature 55 °F 53 °F 32 °F (1973)
Degree Days  
Heating Degree Days 0 4  
Month to date heating degree days 1 59  
Since 1 July heating degree days 42 92  
Cooling Degree Days 2 2  
Month to date cooling degree days 88 50  
Year to date cooling degree days 3812 3350  
Growing Degree Days 16 (Base 50)    
Moisture  
Dew Point 65 °F    
Average Humidity 87    
Maximum Humidity 100    
Minimum Humidity 67    
Precipitation  
Precipitation 0.01 in 0.10 in 1.00 in (1916)
Month to date precipitation 1.03 1.39  
Year to date precipitation 45.07 51.87  
Sea Level Pressure  
Sea Level Pressure 29.97 in    
Wind  
Wind Speed 6 mph (WSW)    
Max Wind Speed 17 mph    
Max Gust Speed 22 mph    
Visibility 9 miles    
Events      
T = Trace of Precipitation, MM = Missing Value Source: NWS Daily Summary

Daily Weather History Graph

Daily Weather History Graph

Search for Another Location

Airport:

Trip Planner

Search our weather history database for the weather conditions in past years. The results will help you decide how hot, cold, wet, or windy it might be!

Date:

Astronomy

Dec. 18, 2012 Rise Set
Actual Time 7:14 AM EST 5:39 PM EST
Civil Twilight 6:49 AM EST 6:05 PM EST
Nautical Twilight 6:19 AM EST 6:34 PM EST
Astronomical Twilight 5:51 AM EST 7:02 PM EST
Moon 11:21 AM EST (12/18) 11:33 PM EST (12/18)
Length of Visible Light 11h 16m
Length of Day
10h 24m
Waxing Crescent, 34% of the Moon is Illuminated
Dec 18
Waxing Crescent
Dec 20
First Quarter
Dec 28
Full
Jan 4
Last Quarter
Jan 11
New

Hourly Weather History & Observations

Time (EST) Temp. Dew Point Humidity Pressure Visibility Wind Dir Wind Speed Gust Speed Precip Events Conditions
12:53 AM 70.0 °F 69.1 °F 97% 29.89 in 10.0 mi South 10.4 mph - N/A   Clear
1:53 AM 70.0 °F 69.1 °F 97% 29.90 in 10.0 mi SSW 5.8 mph - N/A   Clear
2:53 AM 71.1 °F 68.0 °F 90% 29.90 in 10.0 mi SW 6.9 mph - N/A   Clear
3:53 AM 71.1 °F 69.1 °F 93% 29.91 in 10.0 mi SW 6.9 mph - N/A   Clear
4:53 AM 70.0 °F 69.1 °F 97% 29.92 in 10.0 mi SW 5.8 mph - N/A   Clear
6:53 AM 71.1 °F 69.1 °F 93% 29.94 in 10.0 mi SW 5.8 mph - N/A   Clear
7:53 AM 71.1 °F 70.0 °F 96% 29.96 in 9.0 mi SSW 5.8 mph - N/A   Mostly Cloudy
8:00 AM 71.6 °F 69.8 °F 94% 29.96 in 9.0 mi SSW 4.6 mph - N/A   Scattered Clouds
8:53 AM 73.0 °F 71.1 °F 93% 29.96 in 10.0 mi SSW 8.1 mph - N/A   Scattered Clouds
9:53 AM 73.9 °F 70.0 °F 87% 29.99 in 10.0 mi SW 8.1 mph - N/A   Mostly Cloudy
10:53 AM 75.0 °F 70.0 °F 84% 29.99 in 10.0 mi SW 10.4 mph - N/A   Mostly Cloudy
11:08 AM 75.2 °F 69.8 °F 83% 29.99 in 10.0 mi SW 9.2 mph - N/A   Scattered Clouds
11:53 AM 75.0 °F 72.0 °F 90% 29.98 in 10.0 mi West 9.2 mph - 0.01 in   Partly Cloudy
12:53 PM 75.9 °F 70.0 °F 82% 29.96 in 10.0 mi West 10.4 mph - N/A   Mostly Cloudy
1:53 PM 75.9 °F 66.0 °F 71% 29.95 in 10.0 mi NNW 13.8 mph 19.6 mph N/A   Mostly Cloudy
2:53 PM 78.1 °F 66.0 °F 66% 29.95 in 10.0 mi NNW 9.2 mph 17.3 mph N/A   Scattered Clouds
3:53 PM 75.9 °F 64.9 °F 69% 29.95 in 10.0 mi NNW 10.4 mph - N/A   Clear
4:53 PM 73.9 °F 63.0 °F 68% 29.96 in 10.0 mi NNW 5.8 mph - N/A   Clear
5:53 PM 69.1 °F 61.0 °F 75% 29.97 in 10.0 mi NNW 5.8 mph - N/A   Clear
6:53 PM 68.0 °F 62.1 °F 81% 29.99 in 10.0 mi North 3.5 mph - N/A   Clear
7:53 PM 64.9 °F 61.0 °F 87% 30.01 in 10.0 mi Calm Calm - N/A   Clear
8:53 PM 63.0 °F 60.1 °F 90% 30.02 in 10.0 mi Calm Calm - N/A   Clear
9:53 PM 62.1 °F 57.9 °F 86% 30.03 in 10.0 mi North 3.5 mph - N/A   Clear
10:53 PM 57.0 °F 55.0 °F 93% 30.04 in 3.0 mi Calm Calm - N/A   Clear
11:00 PM 57.2 °F 55.4 °F 94% 30.03 in 1.0 mi Calm Calm - N/A   Clear
11:05 PM 55.4 °F 55.4 °F 100% 30.03 in 4.0 mi Calm Calm - N/A   Clear
11:53 PM 55.9 °F 55.0 °F 97% 30.03 in 7.0 mi Calm Calm - N/A   Clear